Simultaneous Nadir Overpasses (SNOs) Predictions

Prediction of SNOs near US between AQUA and NPP Satellite Orbit:

Table of predicted SNOs near US for the next 10.0 days since TLE Epoch: 12/5/2014
Index Date (AQUA) Time (AQUA) AQUA Lat,Lon Date (NPP) Time (NPP) NPP Lat,Lon Distance(km) Time Diff (sec)
1 12/07/2014 17:27:32 49.30, -67.57 12/07/2014 17:27:43 49.07, -68.79 92.56 11
2 12/07/2014 19:03:54 40.30, -89.04 12/07/2014 19:06:36 40.00, -90.75 148.79 162
3 12/07/2014 20:40:18 31.36,-111.17 12/07/2014 20:45:30 30.91,-113.37 215.53 312
4 12/10/2014 06:56:28 20.05, -77.18 12/10/2014 06:52:37 19.98, -76.78 42.07 231
5 12/10/2014 08:30:23 37.97, -97.22 12/10/2014 08:28:59 37.97, -97.23 0.84 84
6 12/10/2014 10:05:56 49.90,-117.72 12/10/2014 10:07:02 49.94,-118.14 30.55 66
7 12/12/2014 21:04:08 49.96,-121.94 12/12/2014 20:57:15 50.06,-121.56 28.93 413




NCC Satellite Simultaneous Nadir Overpasses (SNOs) Prediction Service
